Location: Tierra del Sol
(32.6128°N, 116.3319°W)
Time: 13:42:11
(UTC-07:00)

Amateur Radio Satellites - All Passes

Search period start: 25 May 2016 13:12
Search period end: 26 May 2016 13:12
Location: Tierra del Sol, 32.6128°N, 116.3319°W

Satellite Date Start Highest point End Downlink Frequencies (MHz)
Time Altitude Azimuth
TISAT 1 25 May 13:18:23 13:22:05 31° 98° (E) 13:25:46 437.305
CUSAT 1 25 May 13:38:06 13:42:09 18° 295° (WNW) 13:46:48 437.405
Oscar 19 25 May 13:40:31 13:45:41 73° 257° (WSW) 13:50:54 437.125/150
Gurwin Techsat 1B 25 May 13:43:43 13:48:46 46° 72° (ENE) 13:53:49 435.225
CUBEBUG 1 25 May 13:44:41 13:46:08 12° 294° (WNW) 13:47:36 437.445
VELOX 1 25 May 13:44:46 13:46:32 12° 294° (WNW) 13:48:19 145.980
BEESAT 2 25 May 13:45:13 13:46:04 11° 311° (NW) 13:46:56 435.950
DX 1 25 May 13:47:37 13:49:40 13° 293° (WNW) 13:51:42 434.975-435.025
AO-7 25 May 13:47:59 13:51:59 15° 54° (NE) 13:56:00 29.400- 29.500
AIST 2 25 May 13:52:58 13:56:57 52° 115° (ESE) 14:00:58 435.215
ITAMSAT 1 25 May 14:17:15 14:21:57 37° 71° (ENE) 14:26:40 435.822/435.867
SPROUT 25 May 14:23:21 14:24:14 11° 294° (WNW) 14:25:08 437.525
SWISSCUBE 25 May 14:26:01 14:30:25 35° 99° (E) 14:34:47 437.505
ITUPSAT 1 25 May 14:30:51 14:35:14 35° 99° (E) 14:39:36 437.325
AO-85 25 May 14:47:47 14:50:03 13° 47° (NE) 14:52:13 145.980
TISAT 1 25 May 14:54:50 14:57:27 16° 291° (WNW) 15:00:04 437.305
YUBILEINY 25 May 14:55:23 14:59:46 15° 80° (E) 15:04:08 435.215
BEESAT 25 May 14:55:44 15:00:31 70° 102° (ESE) 15:05:16 436.000
Cosmos 2491 25 May 14:55:54 15:03:50 37° 76° (ENE) 15:11:39 435.465 / 435.565
JAS-2 25 May 15:02:37 15:03:19 10° 274° (W) 15:04:02 435.910
Gurwin Techsat 1B 25 May 15:25:30 15:28:52 17° 266° (W) 15:32:16 435.225
AIST 2 25 May 15:33:57 15:35:43 12° 310° (NW) 15:37:30 435.215
AO-7 25 May 15:35:11 15:43:27 80° 71° (ENE) 15:51:46 29.400- 29.500
RS-15 25 May 15:51:09 15:58:36 21° 100° (E) 16:06:13 29.354- 29.394
ITAMSAT 1 25 May 15:57:38 16:01:27 21° 265° (W) 16:05:17 435.822/435.867
SWISSCUBE 25 May 16:04:32 16:07:55 19° 292° (WNW) 16:11:17 437.505
ITUPSAT 1 25 May 16:09:22 16:12:47 20° 292° (WNW) 16:16:12 437.325
AO-85 25 May 16:26:34 16:30:57 54° 246° (WSW) 16:34:57 145.980
MOZHAYETS 4 25 May 16:27:47 16:32:22 60° 101° (E) 16:36:56
KKS-1 25 May 16:29:29 16:33:56 87° 106° (ESE) 16:38:20 437.445
NOAA 15 25 May 16:35:51 16:36:32 10° 62° (ENE) 16:37:13 137.62
BEESAT 25 May 16:37:16 16:37:39 10° 296° (WNW) 16:38:03 436.000
YUBILEINY 25 May 16:46:38 16:55:20 85° 276° (W) 17:04:05 435.215
HORYU 2 25 May 16:49:30 16:53:56 87° 73° (ENE) 16:58:22 437.375
Cosmos 2491 25 May 16:52:38 17:00:33 40° 273° (W) 17:08:25 435.465 / 435.565
STARS 25 May 17:11:37 17:15:55 60° 285° (WNW) 17:20:12 437.465
CUTE-I 25 May 17:16:02 17:19:37 19° 66° (ENE) 17:23:12 437.470
Cosmos 2504 25 May 17:21:15 17:27:49 40° 89° (E) 17:34:36 435.465 / 435.565
AO-7 25 May 17:31:55 17:36:51 17° 266° (W) 17:41:50 29.400- 29.500
LilacSat-2 25 May 17:35:09 17:37:50 19° 71° (ENE) 17:40:31 437.200
CUBESAT XI-V 25 May 17:46:56 17:51:27 44° 99° (E) 17:55:55 437.345
NOAA 18 25 May 17:46:57 17:52:12 49° 72° (ENE) 17:57:27 137.9125
BRITE-PL 25 May 17:47:04 17:52:17 44° 73° (ENE) 17:57:39 437.365/2234.400
RS-15 25 May 17:58:11 18:09:24 83° 298° (WNW) 18:21:20 29.354- 29.394
Cubesat XI-IV 25 May 18:06:59 18:12:12 60° 74° (ENE) 18:17:26 437.490
MOZHAYETS 4 25 May 18:07:42 18:08:58 11° 294° (WNW) 18:10:13
NOAA 15 25 May 18:10:14 18:15:32 82° 257° (WSW) 18:20:52 137.62
PCSat 25 May 18:22:27 18:24:33 12° 49° (NE) 18:26:38 145.827
GOMX 1 25 May 18:23:23 18:28:36 47° 74° (ENE) 18:33:49 467.674
M-CUBED/EXP-1 PRIME 25 May 18:33:47 18:35:53 13° 65° (ENE) 18:37:53 437.505
YUBILEINY 25 May 18:49:39 18:53:20 13° 294° (WNW) 18:57:02 435.215
CUTE-I 25 May 18:54:13 18:59:15 45° 260° (W) 19:04:20 437.470
LilacSat-2 25 May 19:08:59 19:11:58 22° 264° (W) 19:14:58 437.200
CANX-2 25 May 19:11:28 19:14:10 17° 69° (ENE) 19:16:54 2200.000
Cosmos 2504 25 May 19:15:14 19:21:14 28° 286° (WNW) 19:27:27 435.465 / 435.565
HO-68 25 May 19:18:27 19:24:50 37° 67° (ENE) 19:31:12 435.675
SEEDS 25 May 19:19:36 19:21:25 13° 68° (ENE) 19:23:13 437.485
DOVE 4 25 May 19:23:22 19:28:41 89° 257° (WSW) 19:33:51 437.250
CUBESAT XI-V 25 May 19:25:46 19:28:23 15° 293° (WNW) 19:31:01 437.345
BRITE-PL 25 May 19:26:44 19:30:50 21° 267° (W) 19:35:03 437.365/2234.400
NOAA 18 25 May 19:29:37 19:33:03 17° 265° (W) 19:36:29 137.9125
CUTE 1.7 + AOD 2 25 May 19:38:03 19:41:43 30° 73° (ENE) 19:45:25 437.475
CUBEBUG 2 25 May 19:42:13 19:42:57 10° 67° (ENE) 19:43:41 437.445
STRAND 1 25 May 19:49:10 19:54:18 64° 102° (ESE) 19:59:24 437.568
Cubesat XI-IV 25 May 19:50:17 19:52:35 13° 267° (W) 19:54:53 437.490
O/OREOS (USA 219) 25 May 19:54:44 19:59:05 49° 68° (ENE) 20:03:24 437.305
AUBIESAT-1 25 May 20:01:06 20:05:21 62° 254° (WSW) 20:09:21 437.475
GOMX 1 25 May 20:03:04 20:06:47 19° 267° (W) 20:10:31 467.674
PCSat 25 May 20:03:09 20:08:36 85° 246° (WSW) 20:14:00 145.827
M-CUBED/EXP-1 PRIME 25 May 20:05:56 20:10:07 43° 255° (WSW) 20:14:02 437.505
COMPASS 1 25 May 20:07:36 20:11:19 34° 73° (ENE) 20:15:04 437.405
CINEMA 3 25 May 20:10:23 20:15:15 87° 75° (ENE) 20:19:56 145.822/145.860
AAUSAT CUBESAT 2 25 May 20:12:25 20:16:01 30° 73° (ENE) 20:19:39 437.432
UWE-3 25 May 20:13:13 20:16:00 17° 70° (ENE) 20:18:43 435.000/436.395/437.385
RS-15 25 May 20:15:18 20:23:55 23° 323° (NW) 20:32:56 29.354- 29.394
PRISM 25 May 20:24:06 20:27:23 22° 96° (E) 20:30:38 437.425
FUNcube-1 25 May 20:24:16 20:26:15 13° 68° (ENE) 20:28:13 145.935
GONETS M04 25 May 20:43:45 20:49:20 19° 81° (E) 20:54:53
CANX-2 25 May 20:46:04 20:49:45 30° 263° (W) 20:53:29 2200.000
ISS 25 May 20:51:41 20:54:19 23° 129° (SE) 20:56:58 145.825
SEEDS 25 May 20:52:47 20:56:42 40° 261° (W) 21:00:39 437.485
DELFI C3 25 May 21:00:56 21:03:41 18° 70° (ENE) 21:06:27 145.870
BEESAT 3 25 May 21:05:13 21:09:00 43° 59° (ENE) 21:12:45 437.485
HO-68 25 May 21:06:01 21:12:24 35° 261° (W) 21:18:50 435.675
Oscar 11 25 May 21:08:30 21:12:42 57° 75° (ENE) 21:16:56 145.826/435.025
CUBEBUG 2 25 May 21:14:42 21:19:06 56° 260° (W) 21:23:22 437.445
CUTE 1.7 + AOD 2 25 May 21:14:56 21:17:34 16° 266° (W) 21:20:13 437.475
ZACube-1 25 May 21:18:34 21:22:50 67° 76° (ENE) 21:27:01 437.345
STRAND 1 25 May 21:30:42 21:32:52 13° 296° (WNW) 21:35:02 437.568
O/OREOS (USA 219) 25 May 21:36:49 21:37:56 11° 262° (W) 21:39:04 437.305
AIST 1 25 May 21:40:22 21:44:44 71° 277° (W) 21:49:08
COMPASS 1 25 May 21:44:44 21:46:57 14° 266° (W) 21:49:11 437.405
HUMSAT D 25 May 21:45:40 21:49:10 28° 72° (ENE) 21:52:40 437.325/437.525
UWE-3 25 May 21:48:15 21:52:11 32° 262° (W) 21:56:02 435.000/436.395/437.385
AAUSAT CUBESAT 2 25 May 21:49:01 21:51:31 16° 266° (W) 21:54:03 437.432
FUNcube-1 25 May 21:58:06 22:02:08 40° 261° (W) 22:06:06 145.935
PRISM 25 May 21:59:17 22:02:33 22° 290° (WNW) 22:05:48 437.425
Cosmos 2499 25 May 22:02:12 22:08:31 35° 87° (E) 22:15:10 435.465 / 435.565
BEESAT 2 25 May 22:03:49 22:07:46 65° 244° (WSW) 22:11:40 435.950
DANDE 25 May 22:10:44 22:14:56 15° 64° (ENE) 22:18:58 436.750
AIST 2 25 May 22:21:22 22:21:52 10° 49° (NE) 22:22:21 435.215
UNISAT 6 25 May 22:21:28 22:24:54 23° 96° (E) 22:28:23 437.425
ISS 25 May 22:27:57 22:30:40 24° 323° (NW) 22:33:25 145.825
TIGRISAT 25 May 22:29:33 22:33:13 27° 97° (E) 22:36:54 435.000
ESTCUBE 1 25 May 22:29:38 22:32:34 17° 68° (ENE) 22:35:31 437.505/2401.250
PHONESAT 2.4 25 May 22:29:50 22:32:58 78° 152° (SSE) 22:36:06 2401.200-2431.200
CUSAT 1 25 May 22:34:09 22:41:15 39° 74° (ENE) 22:47:12 437.405
DELFI C3 25 May 22:35:08 22:38:21 24° 264° (W) 22:41:37 145.870
GONETS M04 25 May 22:36:20 22:45:08 73° 277° (W) 22:53:56
RS-15 25 May 22:42:03 22:43:25 10° 359° (N) 22:44:47 29.354- 29.394
BEESAT 3 25 May 22:45:08 22:46:15 11° 252° (WSW) 22:47:20 437.485
CUBEBUG 1 25 May 22:57:57 23:01:31 24° 71° (ENE) 23:05:06 437.445
VELOX 1 25 May 22:59:29 23:03:07 25° 70° (ENE) 23:06:46 145.980
DX 1 25 May 23:01:22 23:04:44 22° 70° (ENE) 23:08:06 434.975-435.025
ANTELSAT 25 May 23:02:02 23:06:21 75° 102° (ESE) 23:10:43 437.575/2403.000
HUMSAT D 25 May 23:22:09 23:24:47 17° 265° (W) 23:27:25 437.325/437.525
DUCHIFAT 1 25 May 23:30:48 23:33:58 21° 96° (E) 23:37:08 145.980
SO-50 25 May 23:31:36 23:34:23 15° 108° (ESE) 23:37:10 436.795
SPROUT 25 May 23:34:19 23:37:40 22° 71° (ENE) 23:41:01 437.525
AISAT 25 May 23:34:22 23:38:49 70° 75° (ENE) 23:43:16 437.250
50 SAT 25 May 23:43:00 23:46:36 78° 258° (WSW) 23:50:15 437.505
DANDE 25 May 23:50:35 23:59:04 81° 82° (E) 00:06:33 436.750
UKube-1 25 May 23:53:15 23:57:33 75° 76° (ENE) 00:01:54 .
Cosmos 2499 25 May 23:55:13 00:01:30 33° 285° (WNW) 00:08:10 435.465 / 435.565
AIST 2 25 May 23:56:38 00:00:45 67° 244° (WSW) 00:04:51 435.215
BUGSAT 1 25 May 23:57:34 00:00:24 18° 95° (E) 00:03:13 437.445
UNISAT 6 25 May 23:58:06 00:01:30 23° 289° (WNW) 00:04:56 437.425
ESTCUBE 1 26 May 00:04:57 00:09:04 35° 262° (W) 00:13:13 437.505/2401.250
POPSAT HIP 1 26 May 00:05:48 00:09:58 66° 101° (E) 00:14:08 437.405
QB50P1 26 May 00:06:24 00:10:35 69° 102° (ESE) 00:14:44 145.935-145.965
TIGRISAT 26 May 00:06:35 00:09:42 20° 290° (WNW) 00:12:51 435.000
TISAT 1 26 May 00:07:06 00:09:15 14° 68° (ENE) 00:11:24 437.305
PHONESAT 2.4 26 May 00:07:16 00:09:55 25° 347° (NNW) 00:12:35 2401.200-2431.200
QB50P2 26 May 00:07:58 00:12:11 77° 103° (ESE) 00:16:22 145.880/145.840
POLYITAN 1 26 May 00:10:24 00:14:36 79° 101° (E) 00:18:48 437.675
CUSAT 1 26 May 00:16:34 00:23:04 32° 274° (W) 00:28:36 437.405
NANOSAT C BR1 26 May 00:26:00 00:30:09 69° 284° (WNW) 00:34:18 145.865
JAS-2 26 May 00:27:15 00:32:30 21° 91° (E) 00:37:20 435.910
CUBEBUG 1 26 May 00:34:07 00:37:40 23° 264° (W) 00:41:15 437.445
VELOX 1 26 May 00:35:55 00:39:28 23° 264° (W) 00:43:01 145.980
DX 1 26 May 00:37:06 00:40:44 26° 263° (W) 00:44:25 434.975-435.025
GONETS M04 26 May 00:41:49 00:43:25 11° 296° (WNW) 00:45:01
RS-15 26 May 00:54:10 01:03:11 23° 36° (NE) 01:12:10 29.354- 29.394
DUCHIFAT 1 26 May 01:06:13 01:09:34 24° 289° (WNW) 01:12:53 145.980
SO-50 26 May 01:09:40 01:14:25 50° 302° (WNW) 01:19:12 436.795
SPROUT 26 May 01:09:59 01:13:28 24° 264° (W) 01:16:57 437.525
SWISSCUBE 26 May 01:28:30 01:32:19 25° 70° (ENE) 01:36:10 437.505
BUGSAT 1 26 May 01:32:25 01:35:43 24° 289° (WNW) 01:38:58 437.445
ITUPSAT 1 26 May 01:33:37 01:37:26 25° 70° (ENE) 01:41:17 437.325
DANDE 26 May 01:35:42 01:40:45 18° 279° (W) 01:45:31 436.750
TISAT 1 26 May 01:40:33 01:44:31 39° 261° (W) 01:48:30 437.305
PHONESAT 2.4 26 May 01:44:57 01:47:17 19° 4° (N) 01:49:38 2401.200-2431.200
Oscar 19 26 May 01:56:46 02:01:51 58° 101° (E) 02:06:53 437.125/150
BEESAT 26 May 01:57:37 02:02:09 47° 73° (ENE) 02:06:42 436.000
Gurwin Techsat 1B 26 May 02:04:55 02:09:23 27° 97° (E) 02:13:48 435.225
JAS-2 26 May 02:10:43 02:17:58 58° 288° (WNW) 02:24:25 435.910
ITAMSAT 1 26 May 02:35:21 02:39:00 19° 95° (E) 02:42:39 435.822/435.867
YUBILEINY 26 May 03:02:49 03:10:51 39° 77° (ENE) 03:18:53 435.215
RS-15 26 May 03:05:38 03:18:03 77° 61° (ENE) 03:30:16 29.354- 29.394
SWISSCUBE 26 May 03:06:00 03:09:58 26° 263° (W) 03:13:57 437.505
ITUPSAT 1 26 May 03:11:08 03:15:07 27° 263° (W) 03:19:08 437.325
Cosmos 2504 26 May 03:21:23 03:23:56 11° 67° (ENE) 03:26:29 435.465 / 435.565
PHONESAT 2.4 26 May 03:21:32 03:24:31 41° 20° (NNE) 03:27:29 2401.200-2431.200
KKS-1 26 May 03:22:54 03:27:08 44° 74° (ENE) 03:31:23 437.445
MOZHAYETS 4 26 May 03:25:23 03:29:25 32° 72° (ENE) 03:33:28
BEESAT 26 May 03:37:44 03:40:07 14° 266° (W) 03:42:30 436.000
Oscar 19 26 May 03:38:04 03:40:37 14° 295° (WNW) 03:43:09 437.125/150
AO-7 26 May 03:42:26 03:49:56 36° 99° (E) 03:57:22 29.400- 29.500
Gurwin Techsat 1B 26 May 03:44:39 03:49:13 30° 290° (WNW) 03:53:48 435.225
Cosmos 2491 26 May 03:50:48 03:59:09 50° 90° (E) 04:07:32 435.465 / 435.565
STARS 26 May 04:03:20 04:07:43 65° 75° (ENE) 04:12:06 437.465
ITAMSAT 1 26 May 04:13:41 04:18:34 41° 288° (WNW) 04:23:25 435.822/435.867
HORYU 2 26 May 04:45:34 04:49:06 23° 97° (E) 04:52:36 437.375
CUBESAT XI-V 26 May 04:46:05 04:49:55 26° 71° (ENE) 04:53:48 437.345
AO-85 26 May 04:57:14 05:00:09 15° 106° (ESE) 05:03:04 145.980
PHONESAT 2.4 26 May 04:58:27 05:01:11 28° 214° (SW) 05:03:54 2401.200-2431.200
ISS 26 May 04:58:35 05:01:41 39° 41° (NE) 05:04:45 145.825
YUBILEINY 26 May 04:59:40 05:07:27 38° 273° (W) 05:15:18 435.215
KKS-1 26 May 05:01:48 05:03:52 13° 266° (W) 05:05:55 437.445
MOZHAYETS 4 26 May 05:03:29 05:06:36 18° 265° (W) 05:09:45
Cosmos 2504 26 May 05:09:58 05:18:29 75° 83° (E) 05:27:20 435.465 / 435.565
RS-15 26 May 05:20:04 05:29:16 26° 258° (WSW) 05:38:24 29.354- 29.394
AO-7 26 May 05:34:54 05:42:39 44° 295° (WNW) 05:50:25 29.400- 29.500
JUGNU 26 May 05:37:06 05:39:41 13° 164° (SSE) 05:42:17 437.505
Cosmos 2491 26 May 05:48:42 05:56:09 30° 286° (WNW) 06:03:40 435.465 / 435.565
BRITE-PL 26 May 05:58:23 06:01:47 18° 92° (E) 06:05:01 437.365/2234.400
NOAA 18 26 May 06:13:51 06:18:38 31° 98° (E) 06:23:26 137.9125
HORYU 2 26 May 06:21:56 06:25:32 25° 290° (WNW) 06:29:08 437.375
CUBESAT XI-V 26 May 06:23:26 06:27:11 24° 264° (W) 06:30:59 437.345
Cubesat XI-IV 26 May 06:29:03 06:33:56 35° 98° (E) 06:38:48 437.490
NOAA 15 26 May 06:30:07 06:35:19 55° 101° (E) 06:40:28 137.62
GOMX 1 26 May 06:31:51 06:34:47 17° 93° (E) 06:37:37 467.674
AO-85 26 May 06:34:44 06:40:07 63° 299° (WNW) 06:45:30 145.980
ISS 26 May 06:36:11 06:37:49 13° 234° (SW) 06:39:27 145.825
LilacSat-2 26 May 06:45:52 06:49:33 50° 100° (E) 06:53:14 437.200
STRAND 1 26 May 07:00:31 07:05:29 57° 74° (ENE) 07:10:29 437.568
Cosmos 2504 26 May 07:05:32 07:10:59 19° 278° (W) 07:16:35 435.465 / 435.565
CUTE-I 26 May 07:15:31 07:20:52 78° 285° (WNW) 07:26:13 437.470
JUGNU 26 May 07:23:37 07:28:04 21° 173° (S) 07:32:30 437.505
DOVE 4 26 May 07:28:01 07:31:54 31° 97° (E) 07:35:38 437.250
SRMSAT 26 May 07:28:32 07:29:57 11° 162° (SSE) 07:31:23 437.500
BRITE-PL 26 May 07:35:47 07:40:25 36° 288° (WNW) 07:44:42 437.365/2234.400
M-CUBED/EXP-1 PRIME 26 May 07:51:10 07:52:46 13° 100° (E) 07:54:23 437.505
AIST 1 26 May 07:53:13 07:56:09 18° 76° (ENE) 07:59:04
NOAA 18 26 May 07:54:33 07:59:08 28° 292° (WNW) 08:03:45 137.9125
GOMX 1 26 May 08:08:50 08:13:00 33° 288° (WNW) 08:16:54 467.674
Cubesat XI-IV 26 May 08:09:34 08:13:46 24° 292° (WNW) 08:17:56 437.490
CINEMA 3 26 May 08:10:25 08:13:54 26° 97° (E) 08:17:22 145.822/145.860
NOAA 15 26 May 08:11:35 08:14:34 15° 295° (WNW) 08:17:32 137.62
CANX-2 26 May 08:34:52 08:39:07 62° 101° (E) 08:43:22 2200.000
HO-68 26 May 08:37:42 08:44:46 59° 102° (ESE) 08:51:48 435.675
SEEDS 26 May 08:40:54 08:44:57 43° 99° (E) 08:49:00 437.485
STRAND 1 26 May 08:42:45 08:44:56 13° 267° (W) 08:47:08 437.568
PRISM 26 May 08:43:10 08:47:14 57° 260° (W) 08:51:20 437.425
GONETS M04 26 May 08:52:35 09:00:51 46° 78° (ENE) 09:09:03
PCSat 26 May 08:58:08 09:02:23 24° 106° (ESE) 09:06:38 145.827
Oscar 11 26 May 09:01:33 09:04:04 15° 94° (E) 09:06:34 145.826/435.025
CUTE 1.7 + AOD 2 26 May 09:02:26 09:06:42 69° 283° (WNW) 09:10:57 437.475
DOVE 4 26 May 09:06:37 09:09:17 16° 292° (WNW) 09:11:55 437.250
CUBEBUG 2 26 May 09:10:01 09:13:55 39° 99° (E) 09:17:53 437.445
JUGNU 26 May 09:11:53 09:16:31 23° 183° (S) 09:21:07 437.505
ZACube-1 26 May 09:12:17 09:15:06 17° 95° (E) 09:17:57 437.345
SRMSAT 26 May 09:14:14 09:18:28 20° 171° (S) 09:22:40 437.500
UNISAT 6 26 May 09:17:41 09:19:33 13° 68° (ENE) 09:21:24 437.425
AUBIESAT-1 26 May 09:19:04 09:22:03 32° 291° (WNW) 09:25:03 437.475
M-CUBED/EXP-1 PRIME 26 May 09:24:48 09:27:20 21° 293° (WNW) 09:29:52 437.505
TIGRISAT 26 May 09:25:12 09:27:35 15° 68° (ENE) 09:29:58 435.000
COMPASS 1 26 May 09:29:48 09:33:59 64° 283° (WNW) 09:38:09 437.405
AIST 1 26 May 09:30:02 09:33:44 28° 270° (W) 09:37:23
AAUSAT CUBESAT 2 26 May 09:33:50 09:38:02 74° 282° (WNW) 09:42:12 437.432
UWE-3 26 May 09:41:39 09:45:48 66° 100° (E) 09:50:02 435.000/436.395/437.385
SO-50 26 May 09:45:40 09:50:05 41° 57° (ENE) 09:54:20 436.795
CINEMA 3 26 May 09:47:58 09:50:51 18° 290° (WNW) 09:53:43 145.822/145.860
Cosmos 2499 26 May 09:49:09 09:57:46 66° 82° (E) 10:06:35 435.465 / 435.565
FUNcube-1 26 May 09:50:08 09:54:13 49° 100° (E) 09:58:20 145.935
ANTELSAT 26 May 09:56:33 10:00:34 36° 73° (ENE) 10:04:32 437.575/2403.000
O/OREOS (USA 219) 26 May 10:02:09 10:06:38 57° 291° (WNW) 10:11:08 437.305
DELFI C3 26 May 10:16:22 10:20:21 56° 100° (E) 10:24:18 145.870
SEEDS 26 May 10:18:23 10:20:14 13° 292° (WNW) 10:22:04 437.485
HO-68 26 May 10:26:37 10:31:54 23° 297° (WNW) 10:37:12 435.675
Oscar 11 26 May 10:36:18 10:40:15 35° 287° (WNW) 10:44:12 145.826/435.025
PCSat 26 May 10:40:32 10:45:31 36° 301° (WNW) 10:50:30 145.827
ZACube-1 26 May 10:47:45 10:51:22 29° 287° (WNW) 10:55:02 437.345
CUBEBUG 2 26 May 10:48:14 10:50:11 13° 292° (WNW) 10:52:09 437.445
GONETS M04 26 May 10:49:57 10:57:15 32° 274° (W) 11:04:34
UNISAT 6 26 May 10:51:38 10:55:51 45° 260° (W) 11:00:02 437.425
BEESAT 3 26 May 10:52:15 10:55:18 22° 111° (ESE) 10:58:23 437.485
POPSAT HIP 1 26 May 10:54:09 10:57:43 27° 72° (ENE) 11:01:18 437.405
QB50P1 26 May 10:54:39 10:58:16 28° 72° (ENE) 11:01:52 145.935-145.965
QB50P2 26 May 10:56:17 11:00:01 31° 72° (ENE) 11:03:45 145.880/145.840
POLYITAN 1 26 May 10:58:43 11:02:28 31° 73° (ENE) 11:06:14 437.675
TIGRISAT 26 May 10:59:49 11:03:56 38° 261° (W) 11:08:00 435.000
JUGNU 26 May 11:01:17 11:04:54 16° 193° (SSW) 11:08:31 437.505
SRMSAT 26 May 11:02:26 11:07:02 23° 181° (S) 11:11:38 437.500
HUMSAT D 26 May 11:08:07 11:12:17 78° 283° (WNW) 11:16:29 437.325/437.525
NANOSAT C BR1 26 May 11:13:26 11:17:28 45° 74° (ENE) 11:21:30 145.865
DANDE 26 May 11:16:13 11:17:10 10° 77° (ENE) 11:18:09 436.750
50 SAT 26 May 11:18:33 11:20:08 12° 94° (E) 11:21:42 437.505
SO-50 26 May 11:27:23 11:30:08 16° 252° (WSW) 11:32:49 436.795
FUNcube-1 26 May 11:28:57 11:30:01 11° 293° (WNW) 11:31:05 145.935
CUSAT 1 26 May 11:29:47 11:35:14 45° 90° (E) 11:42:03 437.405
AISAT 26 May 11:30:09 11:33:15 19° 95° (E) 11:36:19 437.250
ANTELSAT 26 May 11:34:51 11:37:20 15° 265° (W) 11:39:49 437.575/2403.000
Cosmos 2499 26 May 11:43:52 11:50:08 23° 277° (W) 11:56:30 435.465 / 435.565
UKube-1 26 May 11:46:01 11:48:53 17° 95° (E) 11:51:45 .
BEESAT 2 26 May 11:51:16 11:55:11 66° 116° (ESE) 11:59:08 435.950
DUCHIFAT 1 26 May 11:52:34 11:56:44 60° 260° (W) 12:00:55 145.980
ESTCUBE 1 26 May 12:01:26 12:05:58 68° 101° (E) 12:10:28 437.505/2401.250
JAS-2 26 May 12:15:53 12:22:32 43° 69° (ENE) 12:29:44 435.910
BUGSAT 1 26 May 12:16:29 12:20:42 70° 259° (W) 12:24:53 437.445
CUBEBUG 1 26 May 12:26:13 12:30:36 90° 333° (NNW) 12:34:56 437.445
DX 1 26 May 12:28:53 12:33:15 77° 103° (ESE) 12:37:34 434.975-435.025
VELOX 1 26 May 12:29:27 12:33:54 86° 281° (W) 12:38:18 145.980
BEESAT 3 26 May 12:29:43 12:32:52 23° 305° (NW) 12:36:03 437.485
POPSAT HIP 1 26 May 12:30:24 12:33:27 19° 265° (W) 12:36:30 437.405
QB50P1 26 May 12:31:01 12:34:00 18° 265° (W) 12:36:58 145.935-145.965
QB50P2 26 May 12:33:06 12:35:50 17° 265° (W) 12:38:34 145.880/145.840
POLYITAN 1 26 May 12:35:38 12:38:18 16° 265° (W) 12:40:57 437.675
50 SAT 26 May 12:50:35 12:53:54 31° 287° (WNW) 12:57:12 437.505
SRMSAT 26 May 12:51:41 12:55:36 18° 191° (S) 12:59:30 437.500
NANOSAT C BR1 26 May 12:52:07 12:53:22 11° 267° (W) 12:54:37 145.865
DANDE 26 May 12:53:39 12:58:29 73° 279° (W) 13:05:04 436.750
SPROUT 26 May 12:59:28 13:03:44 81° 104° (ESE) 13:07:58 437.525
